Volver al catálogo

METEOR 2-8 DEB

ActivoPO
NORAD 36356·DEBRIS·🇷🇺 Russia

Lanzado Mar 25, 1982 desde Plesetsk Cosmodrome

Loading…

Próximos Pases (próximas 24 horas)

TLE

EnvejeciendoSource: Space-Track

Época: Sep 10, 2026, 07:30 UTC

1 36356U 82025AS  26253.31256700  .00002890  00000-0  11254-2 0  9996
2 36356  82.5181 107.9795 0008040 126.6477 233.5449 14.29496800279284

Sigue METEOR 2-8 DEB en tiempo real con AllMySat

Download on the App Store